Time,TemperatureF,DewpointF,PressureIn,WindDirection,WindDirectionDegrees,WindSpeedMPH,WindSpeedGustMPH,Humidity,HourlyPrecipIn,Conditions,Clouds,dailyrainin,SoftwareType,DateUTC
2013-02-12 00:00:00,14.8,10.0,29.98,West,270,3.4,3.4,81,0.00,,,0.00,WUHU216HW,2013-02-12 06:00:00,
2013-02-12 00:05:00,14.9,10.2,29.98,WSW,248,4.0,4.0,81,0.00,,,0.00,WUHU216HW,2013-02-12 06:05:00,
2013-02-12 00:10:00,14.9,10.2,29.98,WSW,248,4.0,4.0,81,0.00,,,0.00,WUHU216HW,2013-02-12 06:10:00,
2013-02-12 00:30:00,14.4,9.6,29.97,WSW,248,2.9,2.9,81,0.00,,,0.00,WUHU216HW,2013-02-12 06:30:00,
2013-02-12 00:35:00,14.4,9.6,29.97,WSW,248,2.9,2.9,81,0.00,,,0.00,WUHU216HW,2013-02-12 06:35:00,
2013-02-12 01:00:00,13.0,8.2,29.97,WSW,248,1.1,1.1,81,0.00,,,0.00,WUHU216HW,2013-02-12 07:00:00,
2013-02-12 01:05:00,13.0,8.2,29.97,WSW,248,1.1,1.1,81,0.00,,,0.00,WUHU216HW,2013-02-12 07:05:00,
2013-02-12 01:30:00,11.0,6.2,29.97,SE,135,0.2,0.2,81,0.00,,,0.00,WUHU216HW,2013-02-12 07:30:00,
2013-02-12 01:31:00,10.8,6.0,29.97,SSE,158,0.2,0.2,81,0.00,,,0.00,WUHU216HW,2013-02-12 07:31:00,
2013-02-12 01:35:00,10.8,6.0,29.97,SSE,158,0.2,0.2,81,0.00,,,0.00,WUHU216HW,2013-02-12 07:35:00,
2013-02-12 01:36:00,10.8,6.0,29.97,SSE,158,0.2,0.2,81,0.00,,,0.00,WUHU216HW,2013-02-12 07:36:00,
2013-02-12 01:40:00,10.8,6.0,29.97,SSE,158,0.2,0.2,81,0.00,,,0.00,WUHU216HW,2013-02-12 07:40:00,
2013-02-12 02:00:00,9.7,5.3,29.96,SSE,158,0.7,0.7,82,0.00,,,0.00,WUHU216HW,2013-02-12 08:00:00,
2013-02-12 02:05:00,9.7,5.3,29.96,South,180,0.2,1.1,82,0.00,,,0.00,WUHU216HW,2013-02-12 08:05:00,
2013-02-12 02:10:00,9.7,5.3,29.96,South,180,0.2,1.1,82,0.00,,,0.00,WUHU216HW,2013-02-12 08:10:00,
2013-02-12 02:31:00,7.9,3.6,29.96,SSW,203,0.7,0.7,82,0.00,,,0.00,WUHU216HW,2013-02-12 08:31:00,
2013-02-12 02:36:00,7.9,3.6,29.96,SSW,203,0.4,0.7,82,0.00,,,0.00,WUHU216HW,2013-02-12 08:36:00,
2013-02-12 02:37:00,7.9,3.6,29.96,SSW,203,0.4,0.7,82,0.00,,,0.00,WUHU216HW,2013-02-12 08:37:00,
2013-02-12 02:41:00,7.9,3.6,29.96,SSW,203,0.4,0.7,82,0.00,,,0.00,WUHU216HW,2013-02-12 08:41:00,
2013-02-12 03:00:00,7.7,3.4,29.96,SSE,158,0.4,0.4,82,0.00,,,0.00,WUHU216HW,2013-02-12 09:00:00,
2013-02-12 03:05:00,7.7,3.4,29.96,SSE,158,1.1,1.1,82,0.00,,,0.00,WUHU216HW,2013-02-12 09:05:00,
2013-02-12 03:10:00,7.7,3.4,29.96,SSE,158,1.1,1.1,82,0.00,,,0.00,WUHU216HW,2013-02-12 09:10:00,
2013-02-12 03:30:00,8.3,4.0,29.96,SW,225,1.1,1.1,82,0.00,,,0.00,WUHU216HW,2013-02-12 09:30:00,
2013-02-12 03:35:00,8.3,4.0,29.96,SSW,203,0.2,1.1,82,0.00,,,0.00,WUHU216HW,2013-02-12 09:35:00,
2013-02-12 03:40:00,8.3,4.0,29.96,SSW,203,0.2,0.2,82,0.00,,,0.00,WUHU216HW,2013-02-12 09:40:00,
2013-02-12 04:00:00,9.5,5.1,29.95,SW,225,0.2,0.2,82,0.00,,,0.00,WUHU216HW,2013-02-12 10:00:00,
2013-02-12 04:05:00,9.5,5.1,29.95,SW,225,0.2,0.2,82,0.00,,,0.00,WUHU216HW,2013-02-12 10:05:00,
2013-02-12 04:30:00,11.3,6.6,29.95,SW,225,1.1,1.1,81,0.00,,,0.00,WUHU216HW,2013-02-12 10:30:00,
2013-02-12 04:35:00,11.3,6.6,29.95,WSW,248,0.4,1.1,81,0.00,,,0.00,WUHU216HW,2013-02-12 10:35:00,
2013-02-12 05:00:00,13.3,8.6,29.95,SE,135,0.9,0.9,81,0.00,,,0.00,WUHU216HW,2013-02-12 11:00:00,
2013-02-12 05:05:00,13.3,8.6,29.95,SSW,203,2.2,2.2,81,0.00,,,0.00,WUHU216HW,2013-02-12 11:05:00,
2013-02-12 05:10:00,13.3,8.6,29.95,SSW,203,2.2,2.2,81,0.00,,,0.00,WUHU216HW,2013-02-12 11:10:00,
2013-02-12 05:30:00,14.2,9.5,29.94,SE,135,1.1,1.1,81,0.00,,,0.00,WUHU216HW,2013-02-12 11:30:00,
2013-02-12 05:35:00,14.2,9.5,29.94,SSE,158,1.1,1.1,81,0.00,,,0.00,WUHU216HW,2013-02-12 11:35:00,
2013-02-12 05:40:00,14.2,9.5,29.94,SSE,158,1.1,1.1,81,0.00,,,0.00,WUHU216HW,2013-02-12 11:40:00,
2013-02-12 06:00:00,15.5,10.7,29.94,SSE,158,2.0,2.0,81,0.00,,,0.00,WUHU216HW,2013-02-12 12:00:00,
2013-02-12 06:05:00,15.5,10.7,29.94,SSE,158,2.2,2.2,81,0.00,,,0.00,WUHU216HW,2013-02-12 12:05:00,
2013-02-12 06:10:00,15.5,10.7,29.94,SSE,158,2.2,2.2,81,0.00,,,0.00,WUHU216HW,2013-02-12 12:10:00,
2013-02-12 06:30:00,16.2,11.3,29.92,SSE,158,4.7,4.7,81,0.00,,,0.00,WUHU216HW,2013-02-12 12:30:00,
2013-02-12 06:35:00,16.2,11.3,29.92,SSE,158,4.7,4.7,81,0.00,,,0.00,WUHU216HW,2013-02-12 12:35:00,
2013-02-12 06:40:00,16.2,11.3,29.92,SSE,158,4.7,4.7,81,0.00,,,0.00,WUHU216HW,2013-02-12 12:40:00,
2013-02-12 07:00:00,16.2,11.3,29.92,SSE,158,2.7,2.7,81,0.00,,,0.00,WUHU216HW,2013-02-12 13:00:00,
2013-02-12 07:05:00,16.2,11.3,29.92,SE,135,2.0,2.7,81,0.00,,,0.00,WUHU216HW,2013-02-12 13:05:00,
2013-02-12 07:10:00,16.2,11.3,29.92,SE,135,2.0,2.0,81,0.00,,,0.00,WUHU216HW,2013-02-12 13:10:00,
2013-02-12 07:30:00,14.9,10.2,29.91,SSE,158,4.5,4.5,81,0.00,,,0.00,WUHU216HW,2013-02-12 13:30:00,
2013-02-12 07:35:00,15.1,10.4,29.91,SE,135,3.8,4.5,81,0.00,,,0.00,WUHU216HW,2013-02-12 13:35:00,
2013-02-12 08:00:00,16.6,11.7,29.90,SSE,158,3.8,3.8,81,0.00,,,0.00,WUHU216HW,2013-02-12 14:00:00,
2013-02-12 08:05:00,16.6,11.7,29.90,SE,135,4.7,4.7,81,0.00,,,0.00,WUHU216HW,2013-02-12 14:05:00,
2013-02-12 08:30:00,18.4,13.7,29.90,SE,135,5.1,5.1,82,0.00,,,0.00,WUHU216HW,2013-02-12 14:30:00,
2013-02-12 08:31:00,18.4,13.7,29.90,SE,135,5.0,5.1,82,0.00,,,0.00,WUHU216HW,2013-02-12 14:31:00,
2013-02-12 08:35:00,18.4,13.7,29.90,SE,135,4.9,5.1,82,0.00,,,0.00,WUHU216HW,2013-02-12 14:35:00,
2013-02-12 08:36:00,18.4,13.7,29.90,SE,135,4.9,5.1,82,0.00,,,0.00,WUHU216HW,2013-02-12 14:36:00,
2013-02-12 08:40:00,18.4,13.7,29.90,SE,135,4.9,5.1,82,0.00,,,0.00,WUHU216HW,2013-02-12 14:40:00,
2013-02-12 09:00:00,20.7,15.5,29.88,SSE,158,8.3,8.3,80,0.00,,,0.00,WUHU216HW,2013-02-12 15:00:00,
2013-02-12 09:05:00,20.7,15.5,29.88,SE,135,4.9,8.3,80,0.00,,,0.00,WUHU216HW,2013-02-12 15:05:00,
2013-02-12 09:10:00,20.7,15.5,29.88,SE,135,4.9,7.2,80,0.00,,,0.00,WUHU216HW,2013-02-12 15:10:00,
2013-02-12 09:30:00,25.0,18.8,29.88,SE,135,6.3,6.3,77,0.00,,,0.00,WUHU216HW,2013-02-12 15:30:00,
2013-02-12 09:35:00,25.2,18.6,29.88,SE,135,6.3,6.3,76,0.00,,,0.00,WUHU216HW,2013-02-12 15:35:00,
2013-02-12 09:36:00,25.2,18.6,29.88,SE,135,6.3,6.3,76,0.00,,,0.00,WUHU216HW,2013-02-12 15:36:00,
2013-02-12 09:40:00,25.2,18.6,29.88,SE,135,6.3,6.3,76,0.00,,,0.00,WUHU216HW,2013-02-12 15:40:00,
2013-02-12 10:00:00,24.8,18.4,29.87,SSE,158,3.8,3.8,76,0.00,,,0.00,WUHU216HW,2013-02-12 16:00:00,
2013-02-12 10:05:00,24.8,18.4,29.87,SE,135,6.9,6.9,76,0.00,,,0.00,WUHU216HW,2013-02-12 16:05:00,
2013-02-12 10:10:00,24.8,18.4,29.87,SE,135,6.9,6.9,76,0.00,,,0.00,WUHU216HW,2013-02-12 16:10:00,
2013-02-12 10:30:00,27.9,20.7,29.86,SSW,203,2.0,2.0,74,0.00,,,0.00,WUHU216HW,2013-02-12 16:30:00,
2013-02-12 10:35:00,27.9,21.0,29.86,SSE,158,3.4,3.4,75,0.00,,,0.00,WUHU216HW,2013-02-12 16:35:00,
2013-02-12 10:40:00,27.9,21.0,29.86,SSE,158,3.4,3.4,75,0.00,,,0.00,WUHU216HW,2013-02-12 16:40:00,
2013-02-12 11:00:00,29.2,21.0,29.86,SW,225,8.5,8.5,71,0.00,,,0.00,WUHU216HW,2013-02-12 17:00:00,
2013-02-12 11:01:00,29.0,20.8,29.86,SW,217,6.6,8.5,71,0.00,,,0.00,WUHU216HW,2013-02-12 17:01:00,
2013-02-12 11:05:00,29.0,20.8,29.86,SW,225,4.7,8.5,71,0.00,,,0.00,WUHU216HW,2013-02-12 17:05:00,
2013-02-12 11:06:00,29.0,20.8,29.86,SW,225,4.7,8.5,71,0.00,,,0.00,WUHU216HW,2013-02-12 17:06:00,
2013-02-12 11:10:00,29.0,20.8,29.86,SW,225,4.7,4.7,71,0.00,,,0.00,WUHU216HW,2013-02-12 17:10:00,
2013-02-12 11:30:00,30.6,21.2,29.85,South,180,6.3,6.3,68,0.00,,,0.00,WUHU216HW,2013-02-12 17:30:00,
2013-02-12 11:31:00,30.8,21.4,29.85,SSW,203,8.1,8.1,68,0.00,,,0.00,WUHU216HW,2013-02-12 17:31:00,
2013-02-12 11:35:00,30.8,21.4,29.85,SSW,203,8.1,8.1,68,0.00,,,0.00,WUHU216HW,2013-02-12 17:35:00,
2013-02-12 11:36:00,30.8,21.4,29.85,SSW,203,8.1,8.1,68,0.00,,,0.00,WUHU216HW,2013-02-12 17:36:00,
2013-02-12 11:40:00,30.8,21.4,29.85,SSW,203,8.1,8.1,68,0.00,,,0.00,WUHU216HW,2013-02-12 17:40:00,
2013-02-12 12:00:00,31.3,21.2,29.85,SW,225,7.6,7.6,66,0.00,,,0.00,WUHU216HW,2013-02-12 18:00:00,
2013-02-12 12:05:00,31.3,21.2,29.85,SSW,203,6.5,7.6,66,0.00,,,0.00,WUHU216HW,2013-02-12 18:05:00,
2013-02-12 12:10:00,31.3,21.2,29.85,SSW,203,6.5,7.6,66,0.00,,,0.00,WUHU216HW,2013-02-12 18:10:00,
2013-02-12 12:30:00,32.6,22.1,29.83,SSW,203,9.8,9.8,65,0.00,,,0.00,WUHU216HW,2013-02-12 18:30:00,
2013-02-12 12:35:00,32.6,21.7,29.83,SSW,203,9.8,9.8,64,0.00,,,0.00,WUHU216HW,2013-02-12 18:35:00,
2013-02-12 12:40:00,32.6,21.7,29.83,SSW,203,9.8,9.8,64,0.00,,,0.00,WUHU216HW,2013-02-12 18:40:00,
2013-02-12 13:00:00,34.2,22.5,29.81,SSE,158,8.1,8.1,62,0.01,,,0.00,WUHU216HW,2013-02-12 19:00:00,
2013-02-12 13:05:00,34.2,22.1,29.81,South,180,6.9,8.1,61,0.01,,,0.01,WUHU216HW,2013-02-12 19:05:00,
2013-02-12 13:10:00,34.2,22.1,29.81,South,180,6.9,6.9,61,0.01,,,0.01,WUHU216HW,2013-02-12 19:10:00,
2013-02-12 13:30:00,34.4,22.0,29.80,NW,315,1.8,1.8,60,0.03,,,0.01,WUHU216HW,2013-02-12 19:30:00,
2013-02-12 13:31:00,34.4,22.3,29.80,South,180,2.7,2.7,61,0.03,,,0.03,WUHU216HW,2013-02-12 19:31:00,
2013-02-12 13:35:00,34.4,22.3,29.80,South,180,2.7,2.7,61,0.03,,,0.03,WUHU216HW,2013-02-12 19:35:00,
2013-02-12 13:36:00,34.4,22.3,29.80,South,180,2.7,2.7,61,0.03,,,0.03,WUHU216HW,2013-02-12 19:36:00,
2013-02-12 14:00:00,34.9,22.5,29.79,WSW,248,1.8,1.8,60,0.03,,,0.03,WUHU216HW,2013-02-12 20:00:00,
2013-02-12 14:05:00,35.1,22.7,29.79,SSW,203,4.3,4.3,60,0.03,,,0.04,WUHU216HW,2013-02-12 20:05:00,
2013-02-12 14:10:00,35.1,22.7,29.79,SSW,203,4.3,4.3,60,0.03,,,0.04,WUHU216HW,2013-02-12 20:10:00,
2013-02-12 14:30:00,34.2,21.3,29.79,SSW,203,6.9,6.9,59,0.02,,,0.04,WUHU216HW,2013-02-12 20:30:00,
2013-02-12 14:35:00,34.2,21.3,29.79,SSW,203,8.5,9.4,59,0.02,,,0.05,WUHU216HW,2013-02-12 20:35:00,
2013-02-12 14:40:00,34.2,21.3,29.79,SSW,203,8.5,8.5,59,0.02,,,0.05,WUHU216HW,2013-02-12 20:40:00,
2013-02-12 15:00:00,35.8,23.4,29.79,SW,225,1.6,1.6,60,0.02,,,0.05,WUHU216HW,2013-02-12 21:00:00,
2013-02-12 15:05:00,36.0,23.6,29.79,West,270,2.7,2.7,60,0.02,,,0.06,WUHU216HW,2013-02-12 21:05:00,
2013-02-12 15:10:00,36.0,23.6,29.79,West,270,2.7,2.7,60,0.02,,,0.06,WUHU216HW,2013-02-12 21:10:00,
2013-02-12 15:30:00,34.4,22.0,29.79,SSW,203,10.5,10.5,60,0.02,,,0.06,WUHU216HW,2013-02-12 21:30:00,
2013-02-12 15:31:00,34.4,22.0,29.79,SSW,203,10.0,10.5,60,0.02,,,0.07,WUHU216HW,2013-02-12 21:31:00,
2013-02-12 15:35:00,34.4,22.0,29.79,SSW,203,9.8,10.5,60,0.02,,,0.07,WUHU216HW,2013-02-12 21:35:00,
2013-02-12 15:36:00,34.4,22.0,29.79,SSW,203,9.8,10.5,60,0.02,,,0.07,WUHU216HW,2013-02-12 21:36:00,
2013-02-12 15:40:00,34.4,22.0,29.79,SSW,203,9.8,9.8,60,0.02,,,0.07,WUHU216HW,2013-02-12 21:40:00,
2013-02-12 16:00:00,34.2,22.1,29.79,WSW,248,7.4,7.4,61,0.01,,,0.07,WUHU216HW,2013-02-12 22:00:00,
2013-02-12 16:05:00,34.2,22.1,29.79,WSW,248,6.5,7.4,61,0.01,,,0.07,WUHU216HW,2013-02-12 22:05:00,
2013-02-12 16:06:00,34.2,22.1,29.79,WSW,248,6.5,7.4,61,0.01,,,0.07,WUHU216HW,2013-02-12 22:06:00,
2013-02-12 16:10:00,34.2,22.1,29.79,WSW,248,6.5,6.5,61,0.01,,,0.07,WUHU216HW,2013-02-12 22:10:00,
2013-02-12 16:30:00,34.2,22.5,29.79,South,180,3.4,3.4,62,0.00,,,0.07,WUHU216HW,2013-02-12 22:30:00,
2013-02-12 16:35:00,34.2,22.5,29.79,South,180,3.4,3.4,62,0.00,,,0.07,WUHU216HW,2013-02-12 22:35:00,
2013-02-12 16:40:00,34.2,22.5,29.79,South,180,3.4,3.4,62,0.00,,,0.07,WUHU216HW,2013-02-12 22:40:00,
2013-02-12 17:00:00,33.7,22.3,29.79,WSW,248,3.1,3.1,63,0.01,,,0.07,WUHU216HW,2013-02-12 23:00:00,
2013-02-12 17:05:00,33.7,22.3,29.79,WSW,248,2.2,3.1,63,0.01,,,0.08,WUHU216HW,2013-02-12 23:05:00,
2013-02-12 17:10:00,33.7,22.3,29.79,WSW,248,2.2,2.2,63,0.01,,,0.08,WUHU216HW,2013-02-12 23:10:00,
2013-02-12 17:30:00,31.3,21.2,29.79,SSW,203,4.0,4.0,66,0.01,,,0.08,WUHU216HW,2013-02-12 23:30:00,
2013-02-12 17:31:00,31.3,21.2,29.79,SSW,203,3.7,4.0,66,0.01,,,0.08,WUHU216HW,2013-02-12 23:31:00,
2013-02-12 17:35:00,31.3,21.2,29.79,SSW,203,3.1,4.0,66,0.01,,,0.08,WUHU216HW,2013-02-12 23:35:00,
2013-02-12 17:36:00,31.3,21.2,29.79,SSW,203,3.1,4.0,66,0.01,,,0.08,WUHU216HW,2013-02-12 23:36:00,
2013-02-12 17:40:00,31.3,21.2,29.79,SSW,203,3.1,4.0,66,0.01,,,0.08,WUHU216HW,2013-02-12 23:40:00,
2013-02-12 18:00:00,29.2,20.6,29.79,South,180,1.1,1.1,70,0.00,,,0.08,WUHU216HW,2013-02-13 00:00:00,
2013-02-12 18:05:00,29.2,20.6,29.79,SSE,158,2.2,2.2,70,0.00,,,0.08,WUHU216HW,2013-02-13 00:05:00,
2013-02-12 18:10:00,29.2,20.6,29.79,SSE,158,2.2,2.2,70,0.00,,,0.08,WUHU216HW,2013-02-13 00:10:00,
2013-02-12 18:30:00,27.5,20.0,29.79,SSE,158,2.5,2.5,73,0.00,,,0.08,WUHU216HW,2013-02-13 00:30:00,
2013-02-12 18:35:00,27.5,20.0,29.79,South,180,3.4,3.4,73,0.00,,,0.08,WUHU216HW,2013-02-13 00:35:00,
2013-02-12 18:40:00,27.5,20.0,29.79,South,180,3.4,3.4,73,0.00,,,0.08,WUHU216HW,2013-02-13 00:40:00,
2013-02-12 19:00:00,26.8,19.9,29.78,SSE,158,2.0,2.0,75,0.00,,,0.08,WUHU216HW,2013-02-13 01:00:00,
2013-02-12 19:05:00,26.8,19.9,29.78,SSE,158,2.0,2.0,75,0.00,,,0.08,WUHU216HW,2013-02-13 01:05:00,
2013-02-12 19:30:00,26.1,19.5,29.78,SW,225,2.5,2.5,76,0.00,,,0.08,WUHU216HW,2013-02-13 01:30:00,
2013-02-12 19:35:00,26.1,19.5,29.78,SW,225,2.5,2.5,76,0.00,,,0.08,WUHU216HW,2013-02-13 01:35:00,
2013-02-12 20:00:00,25.7,19.5,29.78,SW,225,4.5,4.5,77,0.00,,,0.08,WUHU216HW,2013-02-13 02:00:00,
2013-02-12 20:05:00,25.7,19.5,29.78,West,270,2.0,4.5,77,0.00,,,0.08,WUHU216HW,2013-02-13 02:05:00,
2013-02-12 20:10:00,25.7,19.5,29.78,West,270,2.0,3.4,77,0.00,,,0.08,WUHU216HW,2013-02-13 02:10:00,
2013-02-12 20:30:00,24.8,19.0,29.78,SSW,203,4.7,4.7,78,0.00,,,0.08,WUHU216HW,2013-02-13 02:30:00,
2013-02-12 20:31:00,24.8,19.0,29.78,SSW,203,4.7,4.7,78,0.00,,,0.08,WUHU216HW,2013-02-13 02:31:00,
2013-02-12 20:35:00,24.8,19.0,29.78,SSW,203,4.7,4.7,78,0.00,,,0.08,WUHU216HW,2013-02-13 02:35:00,
2013-02-12 20:36:00,24.8,19.0,29.78,SSW,203,4.7,4.7,78,0.00,,,0.08,WUHU216HW,2013-02-13 02:36:00,
2013-02-12 21:00:00,24.7,19.1,29.78,SSW,203,3.6,3.6,79,0.00,,,0.08,WUHU216HW,2013-02-13 03:00:00,
2013-02-12 21:01:00,24.5,18.9,29.78,SW,225,4.0,4.0,79,0.00,,,0.08,WUHU216HW,2013-02-13 03:01:00,
2013-02-12 21:05:00,24.5,18.9,29.78,SW,225,4.0,4.0,79,0.00,,,0.08,WUHU216HW,2013-02-13 03:05:00,
2013-02-12 21:10:00,24.5,18.9,29.78,SW,225,4.0,4.0,79,0.00,,,0.08,WUHU216HW,2013-02-13 03:10:00,
2013-02-12 21:11:00,24.5,18.9,29.78,SW,225,4.0,4.0,79,0.00,,,0.08,WUHU216HW,2013-02-13 03:11:00,
2013-02-12 21:31:00,24.1,18.5,29.77,SW,225,3.8,3.8,79,0.00,,,0.08,WUHU216HW,2013-02-13 03:31:00,
2013-02-12 21:36:00,24.1,18.5,29.77,SSW,203,3.4,4.0,79,0.00,,,0.08,WUHU216HW,2013-02-13 03:36:00,
2013-02-12 21:41:00,24.1,18.5,29.77,SSW,203,3.4,3.4,79,0.00,,,0.08,WUHU216HW,2013-02-13 03:41:00,
2013-02-12 22:00:00,24.1,18.5,29.76,West,270,2.9,2.9,79,0.00,,,0.08,WUHU216HW,2013-02-13 04:00:00,
2013-02-12 22:05:00,24.1,18.5,29.76,SSW,203,2.5,2.9,79,0.00,,,0.08,WUHU216HW,2013-02-13 04:05:00,
2013-02-12 22:10:00,24.1,18.5,29.76,SSW,203,2.5,2.9,79,0.00,,,0.08,WUHU216HW,2013-02-13 04:10:00,
2013-02-12 22:30:00,24.3,18.7,29.76,WSW,248,3.1,3.1,79,0.00,,,0.08,WUHU216HW,2013-02-13 04:30:00,
2013-02-12 22:35:00,24.3,18.7,29.76,WSW,248,5.4,5.4,79,0.00,,,0.08,WUHU216HW,2013-02-13 04:35:00,
2013-02-12 22:36:00,24.3,18.7,29.76,WSW,248,5.4,5.4,79,0.00,,,0.08,WUHU216HW,2013-02-13 04:36:00,
2013-02-12 22:40:00,24.3,18.7,29.76,WSW,248,5.4,5.4,79,0.00,,,0.08,WUHU216HW,2013-02-13 04:40:00,
2013-02-12 23:00:00,24.8,19.3,29.76,WSW,248,7.6,7.6,79,0.00,,,0.08,WUHU216HW,2013-02-13 05:00:00,
2013-02-12 23:05:00,24.8,19.3,29.76,WNW,293,3.8,7.6,79,0.00,,,0.08,WUHU216HW,2013-02-13 05:05:00,
2013-02-12 23:10:00,24.8,19.3,29.76,WNW,293,3.8,5.8,79,0.00,,,0.08,WUHU216HW,2013-02-13 05:10:00,
2013-02-12 23:30:00,24.8,19.3,29.75,WSW,248,4.3,4.3,79,0.00,,,0.08,WUHU216HW,2013-02-13 05:30:00,
2013-02-12 23:31:00,24.8,19.3,29.75,SW,225,6.9,6.9,79,0.00,,,0.08,WUHU216HW,2013-02-13 05:31:00,
2013-02-12 23:35:00,24.8,19.3,29.75,SW,225,6.9,6.9,79,0.00,,,0.08,WUHU216HW,2013-02-13 05:35:00,
2013-02-12 23:36:00,24.8,19.3,29.75,SW,225,6.9,6.9,79,0.00,,,0.08,WUHU216HW,2013-02-13 05:36:00,
2013-02-12 23:40:00,24.8,19.3,29.75,SW,225,6.9,6.9,79,0.00,,,0.08,WUHU216HW,2013-02-13 05:40:00,